User: anonymous   Login
Location: Brede
(50.9167°N, 0.6000°E)
Time: 02:51:16
(UTC+00:00)
Language:

USA 229 DEB - Orbit

View from above orbital plane
View from above orbital plane
View from above satellite
View from above satellite

Ground track
Ground track

The orbit data is extracted from the following two-line orbital elements,

1 37391U 11014B   20288.79990657 0.00000000  00000-0  00000-0 0    05
2 37391  63.4410 162.2188 0180165 358.3949   1.6051 13.40809071    09
Epoch (UTC): 14 October 2020 19:11:51
Eccentricity: 0.0180165
inclination: 63.4410°
perigee height: 971 km
apogee height: 1241 km
right ascension of ascending node: 162.2188°
argument of perigee: 358.3949°
revolutions per day: 13.40809071
mean anomaly at epoch: 1.6051°
orbit number at epoch: 0

The dashed part of the orbit path shows where the satellite is in the earth's shadow,  

DLR